EST,Max TemperatureF,Mean TemperatureF,Min TemperatureF,Max Dew PointF,MeanDew PointF,Min DewpointF,Max Humidity, Mean Humidity, Min Humidity, Max Sea Level PressureIn, Mean Sea Level PressureIn, Min Sea Level PressureIn, Max VisibilityMiles, Mean VisibilityMiles, Min VisibilityMiles, Max Wind SpeedMPH, Mean Wind SpeedMPH, Max Gust SpeedMPH,PrecipitationIn, CloudCover, Events, WindDirDegrees
2012-1-1,53,41,29,45,34,27,100,85,50,30.08,29.94,29.61,10,5,0,16,5,25,0.14,3,Fog-Rain,178
2012-1-2,48,39,29,40,22,17,80,55,40,29.77,29.70,29.62,10,10,10,22,11,31,0.00,3,,253
2012-1-3,30,22,13,20,5,-5,69,48,35,30.14,29.94,29.77,10,10,10,21,11,28,0.00,2,,302
2012-1-4,25,17,9,11,3,-3,69,55,35,30.22,30.09,29.94,10,10,10,14,3,16,0.00,1,,245
2012-1-5,40,33,25,22,16,10,63,54,40,29.93,29.88,29.81,10,10,10,20,7,26,0.00,6,,244
2012-1-6,53,39,25,27,24,21,85,63,35,29.91,29.79,29.69,10,10,8,12,2,16,0.00,1,,167
2012-1-7,61,44,26,34,28,24,92,62,31,29.96,29.77,29.68,10,10,6,15,4,30,0.00,1,,254
2012-1-8,43,33,22,27,21,16,78,56,39,30.32,30.17,29.97,10,10,10,16,6,21,0.00,2,,288
2012-1-9,42,31,19,23,17,11,84,59,28,30.32,30.19,29.97,10,10,10,13,2,17,0.00,2,,185
2012-1-10,46,35,24,27,23,19,81,63,45,29.99,29.90,29.82,10,10,9,15,5,20,0.00,4,,270
2012-1-11,47,35,22,35,25,18,96,68,42,30.09,30.01,29.88,10,10,9,13,3,17,0.03,1,Rain,133
2012-1-12,41,39,37,37,36,34,100,91,79,29.87,29.57,29.49,10,5,1,17,5,26,0.44,8,Rain,16
2012-1-13,47,38,28,43,27,10,100,73,43,29.75,29.43,29.20,10,9,3,29,14,41,0.03,7,Rain,230
2012-1-14,34,28,21,15,12,6,58,50,39,30.07,29.91,29.75,10,10,10,23,12,32,0.00,5,,267
2012-1-15,22,15,8,4,-3,-8,69,46,28,30.60,30.37,30.09,10,10,9,14,7,18,0.00,1,,348
2012-1-16,34,20,5,27,12,-1,92,69,32,30.61,30.38,30.13,10,8,1,15,3,24,0.06,3,Snow,184
2012-1-17,43,37,30,40,34,26,100,93,78,30.09,29.72,29.49,10,4,0,8,2,12,0.14,7,Fog-Rain,152
2012-1-18,48,34,19,41,15,4,92,65,38,30.18,29.90,29.50,10,10,5,28,13,41,0.00,2,,298
2012-1-19,31,21,10,27,15,5,85,62,39,30.27,30.09,29.92,10,8,2,14,2,21,T,4,Snow,166
2012-1-20,32,26,20,22,9,2,92,64,35,30.31,30.16,29.92,10,10,8,18,6,28,0.00,1,,324
2012-1-21,21,18,15,16,12,2,92,67,41,30.35,30.18,30.07,10,4,0,15,7,20,0.16,7,Fog-Snow,14
2012-1-22,32,17,1,24,12,-2,91,71,50,30.57,30.49,30.39,10,10,10,8,1,9,0.00,4,,65
2012-1-23,49,40,30,48,38,24,100,85,69,30.40,30.04,29.85,10,4,0,14,3,18,0.16,8,Fog-Rain,231
2012-1-24,50,44,37,45,38,30,100,79,58,30.12,29.95,29.86,10,8,1,17,8,24,0.00,6,,241
2012-1-25,43,38,33,30,25,23,82,66,49,30.30,30.22,30.12,10,10,10,14,5,18,0.00,4,,286
2012-1-26,38,34,30,34,30,25,100,82,64,30.22,30.07,29.84,10,6,2,6,1,8,0.36,7,Rain-Snow,10
2012-1-27,52,43,34,47,38,27,100,79,57,29.83,29.52,29.30,10,5,2,26,6,37,0.62,7,Rain,296
2012-1-28,46,36,26,27,25,22,92,67,42,30.00,29.92,29.83,10,10,10,17,6,26,0.00,2,,206
2012-1-29,43,37,31,18,14,11,48,39,30,30.15,30.06,29.98,10,10,10,18,8,24,0.00,0,,223
2012-1-30,39,32,24,21,16,10,75,55,35,30.28,30.17,29.95,10,10,10,18,8,26,0.00,4,,265
2012-1-31,56,41,25,31,24,15,75,53,30,30.21,30.07,29.98,10,10,10,16,4,23,0.00,2,,202